Home > Weather > Nome > Past weeks

Flag for U.S.A. Weather for the Past 2 Weeks in Nome, Alaska, U.S.A.

Now
-12 °F

Clear.


Feels Like: -21 °F
Forecast: -13 / -3 °F
Wind: 3 mph from North

Location: Nome Airport

Current Time: Feb 13, 2016 at 10:17:00 PM

Latest Report: Feb 13, 2016 at 9:53 PM


Visibility: 10 mi

Pressure: 29.48 "Hg

Humidity: 81%

Dew point: -16 °F

Location of NomeLocation

Historic Weather in Nome — Graph

°F

Nome Temperature Yesterday

Maximum temperature yesterday: 3 °F (at 3:53 PM)
Minimum temperature yesterday: -9 °F (at 9:53 AM)
Average temperature yesterday: -4 °F

High & Low Weather Summary for the Past Weeks

 TemperatureHumidityPressure
High33 °F (Jan 31, 12:53 PM)100% (Feb 6, 9:55 AM)30.03 "Hg (Feb 6, 9:55 AM)
Low-15 °F (Feb 13, 9:53 AM)40% (Feb 10, 9:53 PM)29.02 "Hg (Feb 4, 5:53 PM)
Average19 °F76%29.58 "Hg
* Reported Jan 29 8:04 PM — Feb 13 8:53 PM, Nome, Weather by CustomWeather, © 2016

Note: Actual official high and low records may vary slightly from our data, if they occured in-between our weather recording intervals... More about our weather records

Advertising

Nome Weather History for the Previous 24 Hours

 ConditionsComfort  
Time TempWeatherWind HumidityBarometerVisibility
8:53 PM
Sat, Feb 13
-12 °FClear.3 mph81%29.47 "Hg10 mi
7:53 PM-11 °FClear.No wind78%29.47 "Hg10 mi
6:53 PM-8 °FClear.No wind83%29.46 "Hg10 mi
5:53 PM-6 °FSunny.No wind75%29.46 "Hg10 mi
4:53 PM-1 °FSunny.No wind75%29.46 "Hg10 mi
3:53 PM-1 °FSunny.No wind75%29.46 "Hg10 mi
2:53 PM0 °FSunny.No wind71%29.46 "Hg10 mi
1:53 PM-4 °FPassing clouds.No wind79%29.47 "Hg10 mi
12:53 PM-6 °FPassing clouds.No wind78%29.46 "Hg10 mi
11:53 AM-7 °FPassing clouds.3 mph75%29.46 "Hg10 mi
10:53 AM-13 °FPassing clouds.3 mph82%29.45 "Hg10 mi
9:53 AM-15 °FClear.No wind77%29.45 "Hg10 mi
8:53 AM-14 °FClear.No wind82%29.44 "Hg10 mi
7:53 AM-13 °FClear.No wind82%29.44 "Hg10 mi
6:53 AM-11 °FClear.No wind78%29.44 "Hg10 mi
5:53 AM-11 °FClear.No wind78%29.44 "Hg10 mi
4:53 AM-11 °FClear.No wind82%29.45 "Hg10 mi
3:53 AM-11 °FClear.No wind82%29.45 "Hg10 mi
2:53 AM-12 °FClear.No wind81%29.45 "Hg10 mi
1:53 AMN/AClear.No windN/A29.46 "Hg10 mi
12:53 AM-9 °FClear.No wind82%29.46 "Hg10 mi
11:53 PM
Fri, Feb 12
-6 °FClear.7 mph75%29.47 "Hg10 mi
10:53 PM-4 °FClear.No wind71%29.47 "Hg10 mi
Weather by CustomWeather, © 2016

See weather overviewHow to use our weather pages